Location: Coll
(42.4728°N, 0.7714°E)
Time: 12:50:49
(UTC+00:00)

COSMOS 2406 - Pass Details

Date: 23 October 2020
Orbit: 843 x 864 km, 71.0° (Epoch: 01 December)

Event Time Altitude Azimuth Distance (km) Brightness Sun altitude
Rises 05:11:11 0° 213° (SSW) 3,388 6.0 -13.3°
Reaches altitude 10° 05:13:39 10° 217° (SW) 2,456 5.3 -12.8°
Maximum altitude 05:19:13 61° 297° (WNW) 956 3.2 -11.8°
Drops below altitude 10° 05:24:50 10° 18° (NNE) 2,471 5.8 -10.8°
Sets 05:27:20 0° 22° (NNE) 3,411 6.6 -10.3°
